,,,PA_Meas_PMT16A,,PR_Meas_QMR101_102,,RH_Meas_QMH101,,SR_Meas_QMS101,,TA_Meas_QMH101,,GenWind,,GenWind,
date,time,status,PA,status,PR,status,RH,status,SR,status,TA,status,DirAvg,status,SpdAvg,
2014-05-23, 00:00:04,VALID,1008.92,VALID,0,VALID,103.459,VALID,0,VALID,24.6703,VALID,81,VALID,0,
2014-05-23, 00:01:04,VALID,1008.96,VALID,0,VALID,103.497,VALID,0,VALID,24.6294,VALID,81,VALID,0,
2014-05-23, 00:02:04,VALID,1008.95,VALID,0,VALID,103.573,VALID,0,VALID,24.6313,VALID,81,VALID,0,
2014-05-23, 00:03:04,VALID,1008.99,VALID,0,VALID,103.649,VALID,0,VALID,24.6508,VALID,81,VALID,0,
2014-05-23, 00:04:04,VALID,1008.96,VALID,0,VALID,103.733,VALID,0,VALID,24.5905,VALID,81,VALID,0,
2014-05-23, 00:05:04,VALID,1009,VALID,0,VALID,103.802,VALID,0,VALID,24.571,VALID,81,VALID,0,
2014-05-23, 00:06:04,VALID,1009.01,VALID,0,VALID,103.848,VALID,0,VALID,24.5515,VALID,81,VALID,0,
2014-05-23, 00:07:04,VALID,1009.03,VALID,0,VALID,103.909,VALID,0,VALID,24.5515,VALID,81,VALID,0,
2014-05-23, 00:08:04,VALID,1009.02,VALID,0,VALID,103.992,VALID,0,VALID,24.532,VALID,81,VALID,0,
2014-05-23, 00:09:04,VALID,1009.03,VALID,0,VALID,104,VALID,0,VALID,24.5338,VALID,81,VALID,0,
2014-05-23, 00:10:04,VALID,1009.04,VALID,0,VALID,104,VALID,0,VALID,24.4949,VALID,81,VALID,0,
2014-05-23, 00:11:04,VALID,1009.01,VALID,0,VALID,104,VALID,0,VALID,24.454,VALID,81,VALID,0,
2014-05-23, 00:12:04,VALID,1009.04,VALID,0,VALID,104,VALID,0,VALID,24.4345,VALID,81,VALID,0,
2014-05-23, 00:13:04,VALID,1009.02,VALID,0,VALID,104,VALID,0,VALID,24.4345,VALID,81,VALID,0,
2014-05-23, 00:14:04,VALID,1009.03,VALID,0,VALID,104,VALID,0,VALID,24.4345,VALID,81,VALID,0,
2014-05-23, 00:15:04,VALID,1009.01,VALID,0,VALID,104,VALID,0,VALID,24.454,VALID,81,VALID,0,
2014-05-23, 00:16:04,VALID,1009,VALID,0,VALID,104,VALID,0,VALID,24.454,VALID,81,VALID,0,
2014-05-23, 00:17:04,VALID,1008.99,VALID,0,VALID,104,VALID,0,VALID,24.4345,VALID,81,VALID,0,
2014-05-23, 00:18:04,VALID,1009,VALID,0,VALID,104,VALID,0,VALID,24.454,VALID,81,VALID,0,
2014-05-23, 00:19:04,VALID,1009,VALID,0,VALID,104,VALID,0,VALID,24.454,VALID,81,VALID,0,
2014-05-23, 00:20:04,VALID,1009.02,VALID,0,VALID,104,VALID,0,VALID,24.4345,VALID,81,VALID,0,
2014-05-23, 00:21:04,VALID,1009.04,VALID,0,VALID,104,VALID,0,VALID,24.454,VALID,81,VALID,0,
2014-05-23, 00:22:04,VALID,1009.02,VALID,0,VALID,104,VALID,0.112112,VALID,24.4735,VALID,81,VALID,0,
2014-05-23, 00:23:04,VALID,1009.03,VALID,0,VALID,104,VALID,0,VALID,24.454,VALID,81,VALID,0,
2014-05-23, 00:24:04,VALID,1008.98,VALID,0,VALID,104,VALID,0,VALID,24.454,VALID,81,VALID,0,
2014-05-23, 00:25:04,VALID,1008.92,VALID,0,VALID,104,VALID,0,VALID,24.4735,VALID,81,VALID,0,
2014-05-23, 00:26:04,VALID,1008.92,VALID,0,VALID,104,VALID,0,VALID,24.4735,VALID,81,VALID,0,
2014-05-23, 00:27:04,VALID,1008.93,VALID,0,VALID,104,VALID,0,VALID,24.4735,VALID,81,VALID,0,
2014-05-23, 00:28:04,VALID,1008.9,VALID,0,VALID,104,VALID,0,VALID,24.4735,VALID,81,VALID,0,
2014-05-23, 00:29:04,VALID,1008.89,VALID,0,VALID,104,VALID,0,VALID,24.4735,VALID,81,VALID,0,
2014-05-23, 00:30:04,VALID,1008.88,VALID,0,VALID,104,VALID,0.112112,VALID,24.4735,VALID,81,VALID,0,
2014-05-23, 00:31:04,VALID,1008.89,VALID,0,VALID,104,VALID,0,VALID,24.454,VALID,81,VALID,0,
2014-05-23, 00:32:04,VALID,1008.88,VALID,0,VALID,104,VALID,0,VALID,24.454,VALID,81,VALID,0,
2014-05-23, 00:33:04,VALID,1008.87,VALID,0,VALID,104,VALID,0,VALID,24.454,VALID,81,VALID,0,
2014-05-23, 00:34:04,VALID,1008.86,VALID,0,VALID,104,VALID,0,VALID,24.454,VALID,81,VALID,0,
2014-05-23, 00:35:04,VALID,1008.82,VALID,0,VALID,104,VALID,0,VALID,24.4345,VALID,81,VALID,0,
2014-05-23, 00:36:04,VALID,1008.8,VALID,0,VALID,104,VALID,0,VALID,24.415,VALID,81,VALID,0,
2014-05-23, 00:37:04,VALID,1008.8,VALID,0,VALID,104,VALID,0,VALID,24.4364,VALID,81,VALID,0,
2014-05-23, 00:38:04,VALID,1008.78,VALID,0,VALID,104,VALID,0,VALID,24.3956,VALID,81,VALID,0,
2014-05-23, 00:39:04,VALID,1008.81,VALID,0,VALID,104,VALID,0,VALID,24.415,VALID,81,VALID,0,
2014-05-23, 00:40:04,VALID,1008.79,VALID,0,VALID,104,VALID,0,VALID,24.415,VALID,81,VALID,0,
2014-05-23, 00:41:04,VALID,1008.79,VALID,0,VALID,104,VALID,0,VALID,24.4364,VALID,81,VALID,0,
2014-05-23, 00:42:04,VALID,1008.79,VALID,0,VALID,104,VALID,0,VALID,24.3956,VALID,81,VALID,0,
2014-05-23, 00:43:04,VALID,1008.78,VALID,0,VALID,104,VALID,0,VALID,24.4169,VALID,81,VALID,0,
2014-05-23, 00:44:04,VALID,1008.78,VALID,0,VALID,104,VALID,0,VALID,24.4169,VALID,81,VALID,0,
2014-05-23, 00:45:04,VALID,1008.79,VALID,0,VALID,104,VALID,0,VALID,24.3956,VALID,81,VALID,0,
2014-05-23, 00:46:04,VALID,1008.75,VALID,0,VALID,104,VALID,0,VALID,24.3761,VALID,81,VALID,0,
2014-05-23, 00:47:04,VALID,1008.71,VALID,0,VALID,104,VALID,0,VALID,24.3761,VALID,81,VALID,0,
2014-05-23, 00:48:04,VALID,1008.69,VALID,0,VALID,104,VALID,0,VALID,24.3566,VALID,81,VALID,0,
2014-05-23, 00:49:04,VALID,1008.67,VALID,0,VALID,104,VALID,0,VALID,24.3761,VALID,81,VALID,0,
2014-05-23, 00:50:04,VALID,1008.66,VALID,0,VALID,104,VALID,0,VALID,24.3761,VALID,81,VALID,0,
2014-05-23, 00:51:04,VALID,1008.64,VALID,0,VALID,104,VALID,0,VALID,24.3956,VALID,81,VALID,0,
2014-05-23, 00:52:04,VALID,1008.6,VALID,0,VALID,104,VALID,0,VALID,24.3956,VALID,81,VALID,0,
2014-05-23, 00:53:04,VALID,1008.63,VALID,0,VALID,104,VALID,0,VALID,24.3956,VALID,81,VALID,0,
2014-05-23, 00:54:04,VALID,1008.6,VALID,0,VALID,104,VALID,0,VALID,24.3956,VALID,81,VALID,0,
2014-05-23, 00:55:04,VALID,1008.59,VALID,0,VALID,104,VALID,0,VALID,24.3956,VALID,81,VALID,0,
2014-05-23, 00:56:04,VALID,1008.58,VALID,0,VALID,104,VALID,0,VALID,24.3761,VALID,81,VALID,0,
2014-05-23, 00:57:04,VALID,1008.58,VALID,0,VALID,104,VALID,0,VALID,24.3761,VALID,81,VALID,0,
2014-05-23, 00:58:04,VALID,1008.59,VALID,0,VALID,104,VALID,0,VALID,24.3371,VALID,81,VALID,0,
2014-05-23, 00:59:04,VALID,1008.58,VALID,0,VALID,104,VALID,0,VALID,24.3176,VALID,81,VALID,0,
2014-05-23, 01:00:04,VALID,1008.59,VALID,0,VALID,104,VALID,0,VALID,24.2786,VALID,81,VALID,0,
2014-05-23, 01:01:04,VALID,1008.61,VALID,0,VALID,104,VALID,0,VALID,24.2805,VALID,81,VALID,0,
2014-05-23, 01:02:04,VALID,1008.58,VALID,0,VALID,104,VALID,0,VALID,24.261,VALID,81,VALID,0,
2014-05-23, 01:03:04,VALID,1008.6,VALID,0,VALID,104,VALID,0,VALID,24.2202,VALID,81,VALID,0,
2014-05-23, 01:04:04,VALID,1008.62,VALID,0,VALID,104,VALID,0,VALID,24.2202,VALID,81,VALID,0,
2014-05-23, 01:05:04,VALID,1008.58,VALID,0,VALID,104,VALID,0,VALID,24.2025,VALID,81,VALID,0,
2014-05-23, 01:06:04,VALID,1008.61,VALID,0,VALID,104,VALID,0,VALID,24.1812,VALID,81,VALID,0,
2014-05-23, 01:07:04,VALID,1008.59,VALID,0,VALID,104,VALID,0,VALID,24.1812,VALID,81,VALID,0,
2014-05-23, 01:08:04,VALID,1008.61,VALID,0,VALID,104,VALID,0,VALID,24.1812,VALID,81,VALID,0,
2014-05-23, 01:09:04,VALID,1008.58,VALID,0,VALID,104,VALID,0,VALID,24.2007,VALID,81,VALID,0,
2014-05-23, 01:10:04,VALID,1008.59,VALID,0,VALID,104,VALID,0,VALID,24.222,VALID,81,VALID,0,
2014-05-23, 01:11:04,VALID,1008.56,VALID,0,VALID,104,VALID,0,VALID,24.222,VALID,81,VALID,0,
2014-05-23, 01:12:04,VALID,1008.56,VALID,0,VALID,104,VALID,0,VALID,24.2007,VALID,81,VALID,0,
2014-05-23, 01:13:04,VALID,1008.57,VALID,0,VALID,104,VALID,0,VALID,24.222,VALID,81,VALID,0,
2014-05-23, 01:14:04,VALID,1008.57,VALID,0,VALID,104,VALID,0,VALID,24.222,VALID,81,VALID,0,
2014-05-23, 01:15:04,VALID,1008.56,VALID,0,VALID,104,VALID,0,VALID,24.2007,VALID,81,VALID,0,
2014-05-23, 01:16:04,VALID,1008.55,VALID,0,VALID,104,VALID,0,VALID,24.2396,VALID,81,VALID,0,
2014-05-23, 01:17:04,VALID,1008.54,VALID,0,VALID,104,VALID,0,VALID,24.2396,VALID,81,VALID,0,
2014-05-23, 01:18:04,VALID,1008.5,VALID,0,VALID,104,VALID,0,VALID,24.2396,VALID,81,VALID,0,
2014-05-23, 01:19:04,VALID,1008.52,VALID,0,VALID,104,VALID,0,VALID,24.261,VALID,81,VALID,0,
2014-05-23, 01:20:04,VALID,1008.48,VALID,0,VALID,104,VALID,0,VALID,24.2396,VALID,81,VALID,0,
2014-05-23, 01:21:04,VALID,1008.45,VALID,0,VALID,104,VALID,0,VALID,24.2415,VALID,81,VALID,0,
2014-05-23, 01:22:04,VALID,1008.43,VALID,0,VALID,104,VALID,0,VALID,24.2202,VALID,81,VALID,0,
2014-05-23, 01:23:04,VALID,1008.45,VALID,0,VALID,104,VALID,0,VALID,24.2202,VALID,81,VALID,0,
2014-05-23, 01:24:04,VALID,1008.45,VALID,0,VALID,104,VALID,0,VALID,24.2202,VALID,81,VALID,0,
2014-05-23, 01:25:04,VALID,1008.46,VALID,0,VALID,104,VALID,0,VALID,24.2007,VALID,81,VALID,0,
2014-05-23, 01:26:04,VALID,1008.47,VALID,0,VALID,104,VALID,0,VALID,24.2007,VALID,81,VALID,0,
2014-05-23, 01:27:04,VALID,1008.47,VALID,0,VALID,104,VALID,0,VALID,24.1812,VALID,81,VALID,0,
2014-05-23, 01:28:04,VALID,1008.47,VALID,0,VALID,104,VALID,0,VALID,24.1812,VALID,81,VALID,0,
2014-05-23, 01:29:04,VALID,1008.47,VALID,0,VALID,104,VALID,0,VALID,24.1812,VALID,81,VALID,0,
2014-05-23, 01:30:04,VALID,1008.47,VALID,0,VALID,104,VALID,0,VALID,24.1812,VALID,81,VALID,0,
2014-05-23, 01:31:04,VALID,1008.49,VALID,0,VALID,104,VALID,0,VALID,24.1812,VALID,81,VALID,0,
2014-05-23, 01:32:04,VALID,1008.5,VALID,0,VALID,104,VALID,0,VALID,24.1812,VALID,81,VALID,0,
2014-05-23, 01:33:04,VALID,1008.48,VALID,0,VALID,104,VALID,0,VALID,24.1812,VALID,81,VALID,0,
2014-05-23, 01:34:04,VALID,1008.45,VALID,0,VALID,104,VALID,0,VALID,24.1812,VALID,81,VALID,0,
2014-05-23, 01:35:04,VALID,1008.48,VALID,0,VALID,104,VALID,0,VALID,24.1617,VALID,81,VALID,0,
2014-05-23, 01:36:04,VALID,1008.47,VALID,0,VALID,104,VALID,0,VALID,24.1635,VALID,81,VALID,0,
2014-05-23, 01:37:04,VALID,1008.48,VALID,0,VALID,104,VALID,0,VALID,24.1422,VALID,81,VALID,0,
2014-05-23, 01:38:04,VALID,1008.49,VALID,0,VALID,104,VALID,0,VALID,24.1227,VALID,81,VALID,0,
2014-05-23, 01:39:04,VALID,1008.5,VALID,0,VALID,104,VALID,0,VALID,24.1422,VALID,81,VALID,0,
2014-05-23, 01:40:04,VALID,1008.5,VALID,0,VALID,104,VALID,0,VALID,24.1422,VALID,81,VALID,0,
2014-05-23, 01:41:04,VALID,1008.49,VALID,0,VALID,104,VALID,0,VALID,24.1227,VALID,81,VALID,0,
2014-05-23, 01:42:04,VALID,1008.45,VALID,0,VALID,104,VALID,0,VALID,24.1227,VALID,81,VALID,0,
2014-05-23, 01:43:04,VALID,1008.43,VALID,0,VALID,104,VALID,0,VALID,24.1227,VALID,81,VALID,0,
2014-05-23, 01:44:04,VALID,1008.41,VALID,0,VALID,104,VALID,0,VALID,24.1032,VALID,81,VALID,0,
2014-05-23, 01:45:04,VALID,1008.42,VALID,0,VALID,104,VALID,0,VALID,24.1032,VALID,81,VALID,0,
2014-05-23, 01:46:04,VALID,1008.39,VALID,0,VALID,104,VALID,0,VALID,24.1032,VALID,81,VALID,0,
2014-05-23, 01:47:04,VALID,1008.42,VALID,0,VALID,104,VALID,0,VALID,24.0837,VALID,81,VALID,0,
2014-05-23, 01:48:04,VALID,1008.44,VALID,0,VALID,104,VALID,0,VALID,24.0643,VALID,81,VALID,0,
2014-05-23, 01:49:04,VALID,1008.46,VALID,0,VALID,104,VALID,0,VALID,24.0837,VALID,81,VALID,0,
2014-05-23, 01:50:04,VALID,1008.42,VALID,0,VALID,104,VALID,0,VALID,24.0837,VALID,81,VALID,0,
2014-05-23, 01:51:04,VALID,1008.44,VALID,0,VALID,104,VALID,0,VALID,24.0643,VALID,81,VALID,0,
2014-05-23, 01:52:04,VALID,1008.43,VALID,0,VALID,104,VALID,0,VALID,24.0837,VALID,81,VALID,0,
2014-05-23, 01:53:04,VALID,1008.45,VALID,0,VALID,104,VALID,0,VALID,24.1051,VALID,81,VALID,0,
2014-05-23, 01:54:04,VALID,1008.44,VALID,0,VALID,104,VALID,0,VALID,24.0837,VALID,81,VALID,0,
2014-05-23, 01:55:04,VALID,1008.45,VALID,0,VALID,104,VALID,0,VALID,24.0837,VALID,81,VALID,0,
2014-05-23, 01:56:04,VALID,1008.45,VALID,0,VALID,104,VALID,0,VALID,24.0643,VALID,81,VALID,0,
2014-05-23, 01:57:04,VALID,1008.45,VALID,0,VALID,104,VALID,0,VALID,24.0643,VALID,81,VALID,0,
2014-05-23, 01:58:04,VALID,1008.43,VALID,0,VALID,104,VALID,0,VALID,24.0661,VALID,81,VALID,0,
2014-05-23, 01:59:04,VALID,1008.39,VALID,0,VALID,104,VALID,0,VALID,24.0448,VALID,81,VALID,0,
2014-05-23, 02:00:04,VALID,1008.37,VALID,0,VALID,104,VALID,0,VALID,24.004,VALID,81,VALID,0,
2014-05-23, 02:01:04,VALID,1008.35,VALID,0,VALID,104,VALID,0,VALID,24.0253,VALID,81,VALID,0,
2014-05-23, 02:02:04,VALID,1008.35,VALID,0,VALID,104,VALID,0,VALID,24.0253,VALID,81,VALID,0,
2014-05-23, 02:03:04,VALID,1008.35,VALID,0,VALID,104,VALID,0,VALID,24.0058,VALID,81,VALID,0,
2014-05-23, 02:04:04,VALID,1008.34,VALID,0,VALID,104,VALID,0,VALID,24.0466,VALID,81,VALID,0,
2014-05-23, 02:05:04,VALID,1008.31,VALID,0,VALID,104,VALID,0,VALID,24.0058,VALID,81,VALID,0,
2014-05-23, 02:06:04,VALID,1008.29,VALID,0,VALID,104,VALID,0.112112,VALID,23.9863,VALID,81,VALID,0,
2014-05-23, 02:07:04,VALID,1008.3,VALID,0,VALID,104,VALID,0,VALID,23.9668,VALID,81,VALID,0,
2014-05-23, 02:08:04,VALID,1008.25,VALID,0,VALID,104,VALID,0,VALID,23.9668,VALID,81,VALID,0,
2014-05-23, 02:09:04,VALID,1008.23,VALID,0,VALID,104,VALID,0,VALID,23.9668,VALID,81,VALID,0,
2014-05-23, 02:10:04,VALID,1008.2,VALID,0,VALID,104,VALID,0,VALID,23.9668,VALID,81,VALID,0,
2014-05-23, 02:11:04,VALID,1008.19,VALID,0,VALID,104,VALID,0,VALID,23.9668,VALID,81,VALID,0,
2014-05-23, 02:12:04,VALID,1008.16,VALID,0,VALID,104,VALID,0,VALID,23.9863,VALID,81,VALID,0,
2014-05-23, 02:13:04,VALID,1008.15,VALID,0,VALID,104,VALID,0,VALID,23.9863,VALID,81,VALID,0,
2014-05-23, 02:14:04,VALID,1008.13,VALID,0,VALID,104,VALID,0,VALID,23.9863,VALID,81,VALID,0,
2014-05-23, 02:15:04,VALID,1008.15,VALID,0,VALID,104,VALID,0,VALID,23.9668,VALID,81,VALID,0,
2014-05-23, 02:16:04,VALID,1008.12,VALID,0,VALID,104,VALID,0,VALID,23.9668,VALID,81,VALID,0,
2014-05-23, 02:17:04,VALID,1008.11,VALID,0,VALID,104,VALID,0,VALID,23.9473,VALID,81,VALID,0,
2014-05-23, 02:18:04,VALID,1008.11,VALID,0,VALID,104,VALID,0,VALID,23.9278,VALID,81,VALID,0,
2014-05-23, 02:19:04,VALID,1008.09,VALID,0,VALID,104,VALID,0,VALID,23.9084,VALID,81,VALID,0,
2014-05-23, 02:20:04,VALID,1008.07,VALID,0,VALID,104,VALID,0,VALID,23.8889,VALID,81,VALID,0,
2014-05-23, 02:21:04,VALID,1008.06,VALID,0,VALID,104,VALID,0,VALID,23.8889,VALID,81,VALID,0,
2014-05-23, 02:22:04,VALID,1008.04,VALID,0,VALID,104,VALID,0.112112,VALID,23.8676,VALID,81,VALID,0,
2014-05-23, 02:23:04,VALID,1008.06,VALID,0,VALID,104,VALID,0,VALID,23.9084,VALID,81,VALID,0,
2014-05-23, 02:24:04,VALID,1008.02,VALID,0,VALID,104,VALID,0,VALID,23.9278,VALID,81,VALID,0,
2014-05-23, 02:25:04,VALID,1007.99,VALID,0,VALID,104,VALID,0,VALID,23.9668,VALID,81,VALID,0,
2014-05-23, 02:26:04,VALID,1008.02,VALID,0,VALID,104,VALID,0,VALID,24.0253,VALID,81,VALID,0,
2014-05-23, 02:27:04,VALID,1008.02,VALID,0,VALID,104,VALID,0,VALID,24.0253,VALID,81,VALID,0,
2014-05-23, 02:28:04,VALID,1008.03,VALID,0,VALID,104,VALID,0,VALID,24.0058,VALID,81,VALID,0,
2014-05-23, 02:29:04,VALID,1008.05,VALID,0,VALID,104,VALID,0,VALID,24.0076,VALID,81,VALID,0,
2014-05-23, 02:30:04,VALID,1008.05,VALID,0,VALID,104,VALID,0,VALID,23.9863,VALID,81,VALID,0,
2014-05-23, 02:31:04,VALID,1008.05,VALID,0,VALID,104,VALID,0,VALID,23.9473,VALID,81,VALID,0,
2014-05-23, 02:32:04,VALID,1008.05,VALID,0,VALID,104,VALID,0,VALID,23.8889,VALID,81,VALID,0,
2014-05-23, 02:33:04,VALID,1008.07,VALID,0,VALID,104,VALID,0,VALID,23.8499,VALID,81,VALID,0,
2014-05-23, 02:34:04,VALID,1008.05,VALID,0,VALID,104,VALID,0,VALID,23.8304,VALID,81,VALID,0,
2014-05-23, 02:35:04,VALID,1008.04,VALID,0,VALID,104,VALID,0,VALID,23.8109,VALID,81,VALID,0,
2014-05-23, 02:36:04,VALID,1008.05,VALID,0,VALID,104,VALID,0,VALID,23.7914,VALID,81,VALID,0,
2014-05-23, 02:37:04,VALID,1008.04,VALID,0,VALID,104,VALID,0,VALID,23.772,VALID,81,VALID,0,
2014-05-23, 02:38:04,VALID,1008.07,VALID,0,VALID,104,VALID,0,VALID,23.7312,VALID,81,VALID,0,
2014-05-23, 02:39:04,VALID,1008.04,VALID,0,VALID,104,VALID,0,VALID,23.733,VALID,81,VALID,0,
2014-05-23, 02:40:04,VALID,1008.05,VALID,0,VALID,104,VALID,0,VALID,23.7117,VALID,81,VALID,0,
2014-05-23, 02:41:04,VALID,1008.08,VALID,0,VALID,104,VALID,0,VALID,23.7135,VALID,81,VALID,0,
2014-05-23, 02:42:04,VALID,1008.06,VALID,0,VALID,104,VALID,0,VALID,23.6745,VALID,81,VALID,0,
2014-05-23, 02:43:04,VALID,1008.07,VALID,0,VALID,104,VALID,0,VALID,23.6745,VALID,81,VALID,0,
2014-05-23, 02:44:04,VALID,1008.04,VALID,0,VALID,104,VALID,0,VALID,23.6745,VALID,81,VALID,0,
2014-05-23, 02:45:04,VALID,1008.07,VALID,0,VALID,104,VALID,0,VALID,23.655,VALID,81,VALID,0,
2014-05-23, 02:46:04,VALID,1008.04,VALID,0,VALID,104,VALID,0,VALID,23.655,VALID,81,VALID,0,
2014-05-23, 02:47:04,VALID,1008.01,VALID,0,VALID,104,VALID,0,VALID,23.655,VALID,81,VALID,0,
2014-05-23, 02:48:04,VALID,1008.01,VALID,0,VALID,104,VALID,0,VALID,23.655,VALID,81,VALID,0,
2014-05-23, 02:49:04,VALID,1008.01,VALID,0,VALID,104,VALID,0,VALID,23.655,VALID,81,VALID,0,
2014-05-23, 02:50:04,VALID,1007.99,VALID,0,VALID,104,VALID,0,VALID,23.6338,VALID,81,VALID,0,
2014-05-23, 02:51:04,VALID,1008.01,VALID,0,VALID,104,VALID,0,VALID,23.6356,VALID,81,VALID,0,
2014-05-23, 02:52:04,VALID,1008,VALID,0,VALID,104,VALID,0,VALID,23.6356,VALID,81,VALID,0,
2014-05-23, 02:53:04,VALID,1008.04,VALID,0,VALID,104,VALID,0,VALID,23.6356,VALID,81,VALID,0,
2014-05-23, 02:54:04,VALID,1008.03,VALID,0,VALID,104,VALID,0.112112,VALID,23.6568,VALID,81,VALID,0,
2014-05-23, 02:55:04,VALID,1008.02,VALID,0,VALID,104,VALID,0,VALID,23.6161,VALID,81,VALID,0,
2014-05-23, 02:56:04,VALID,1008.01,VALID,0,VALID,104,VALID,0.112112,VALID,23.6161,VALID,81,VALID,0,
2014-05-23, 02:57:04,VALID,1007.99,VALID,0,VALID,104,VALID,0,VALID,23.5984,VALID,81,VALID,0,
2014-05-23, 02:58:04,VALID,1007.99,VALID,0,VALID,104,VALID,0,VALID,23.5966,VALID,81,VALID,0,
2014-05-23, 02:59:04,VALID,1007.97,VALID,0,VALID,104,VALID,0,VALID,23.6179,VALID,81,VALID,0,
2014-05-23, 03:00:04,VALID,1007.95,VALID,0,VALID,104,VALID,0,VALID,23.5966,VALID,81,VALID,0,
2014-05-23, 03:01:04,VALID,1007.94,VALID,0,VALID,104,VALID,0,VALID,23.5966,VALID,81,VALID,0,
2014-05-23, 03:02:04,VALID,1007.91,VALID,0,VALID,104,VALID,0,VALID,23.5966,VALID,81,VALID,0,
2014-05-23, 03:03:04,VALID,1007.88,VALID,0,VALID,104,VALID,0,VALID,23.5771,VALID,81,VALID,0,
2014-05-23, 03:04:04,VALID,1007.88,VALID,0,VALID,104,VALID,0,VALID,23.5771,VALID,81,VALID,0,
2014-05-23, 03:05:04,VALID,1007.87,VALID,0,VALID,104,VALID,0,VALID,23.5771,VALID,81,VALID,0,
2014-05-23, 03:06:04,VALID,1007.91,VALID,0,VALID,104,VALID,0,VALID,23.5771,VALID,81,VALID,0,
2014-05-23, 03:07:04,VALID,1007.9,VALID,0,VALID,104,VALID,0,VALID,23.5966,VALID,81,VALID,0,
2014-05-23, 03:08:04,VALID,1007.89,VALID,0,VALID,104,VALID,0.112112,VALID,23.5966,VALID,81,VALID,0,
2014-05-23, 03:09:04,VALID,1007.91,VALID,0,VALID,104,VALID,0,VALID,23.5771,VALID,81,VALID,0,
2014-05-23, 03:10:04,VALID,1007.92,VALID,0,VALID,104,VALID,0,VALID,23.5558,VALID,81,VALID,0,
2014-05-23, 03:11:04,VALID,1007.9,VALID,0,VALID,104,VALID,0,VALID,23.5576,VALID,81,VALID,0,
2014-05-23, 03:12:04,VALID,1007.88,VALID,0,VALID,104,VALID,0,VALID,23.5381,VALID,81,VALID,0,
2014-05-23, 03:13:04,VALID,1007.91,VALID,0,VALID,104,VALID,0,VALID,23.5186,VALID,81,VALID,0,
2014-05-23, 03:14:04,VALID,1007.87,VALID,0,VALID,104,VALID,0,VALID,23.5186,VALID,81,VALID,0,
2014-05-23, 03:15:04,VALID,1007.9,VALID,0,VALID,104,VALID,0,VALID,23.5186,VALID,81,VALID,0,
2014-05-23, 03:16:04,VALID,1007.92,VALID,0,VALID,104,VALID,0,VALID,23.4992,VALID,81,VALID,0,
2014-05-23, 03:17:04,VALID,1007.93,VALID,0,VALID,104,VALID,0,VALID,23.4992,VALID,81,VALID,0,
2014-05-23, 03:18:04,VALID,1007.96,VALID,0,VALID,104,VALID,0,VALID,23.4992,VALID,81,VALID,0,
2014-05-23, 03:19:04,VALID,1007.95,VALID,0,VALID,104,VALID,0,VALID,23.4974,VALID,81,VALID,0,
2014-05-23, 03:20:04,VALID,1007.96,VALID,0,VALID,104,VALID,0,VALID,23.5381,VALID,81,VALID,0,
2014-05-23, 03:21:04,VALID,1007.97,VALID,0,VALID,104,VALID,0,VALID,23.5381,VALID,81,VALID,0,
2014-05-23, 03:22:04,VALID,1008,VALID,0,VALID,104,VALID,0,VALID,23.5186,VALID,81,VALID,0,
2014-05-23, 03:23:04,VALID,1008,VALID,0,VALID,104,VALID,0,VALID,23.5186,VALID,81,VALID,0,
2014-05-23, 03:24:04,VALID,1008.03,VALID,0,VALID,104,VALID,0,VALID,23.4992,VALID,81,VALID,0,
2014-05-23, 03:25:04,VALID,1008.08,VALID,0,VALID,104,VALID,0,VALID,23.5399,VALID,81,VALID,0,
2014-05-23, 03:26:04,VALID,1008.12,VALID,0,VALID,104,VALID,0,VALID,23.4797,VALID,81,VALID,0,
2014-05-23, 03:27:04,VALID,1008.14,VALID,0,VALID,104,VALID,0,VALID,23.4602,VALID,81,VALID,0,
2014-05-23, 03:28:04,VALID,1008.19,VALID,0,VALID,104,VALID,0,VALID,23.4407,VALID,81,VALID,0,
2014-05-23, 03:29:04,VALID,1008.21,VALID,0,VALID,104,VALID,0,VALID,23.4017,VALID,81,VALID,0,
2014-05-23, 03:30:04,VALID,1008.2,VALID,0,VALID,104,VALID,0,VALID,23.423,VALID,81,VALID,0,
2014-05-23, 03:31:04,VALID,1008.28,VALID,0,VALID,104,VALID,0,VALID,23.3823,VALID,81,VALID,0,
2014-05-23, 03:32:04,VALID,1008.3,VALID,0,VALID,104,VALID,0,VALID,23.4212,VALID,81,VALID,0,
2014-05-23, 03:33:04,VALID,1008.32,VALID,0,VALID,104,VALID,0,VALID,23.4212,VALID,81,VALID,0,
2014-05-23, 03:34:04,VALID,1008.35,VALID,0,VALID,104,VALID,0,VALID,23.4212,VALID,81,VALID,0,
2014-05-23, 03:35:04,VALID,1008.37,VALID,0,VALID,104,VALID,0,VALID,23.4602,VALID,81,VALID,0,
2014-05-23, 03:36:04,VALID,1008.38,VALID,0,VALID,104,VALID,0,VALID,23.4992,VALID,81,VALID,0,
2014-05-23, 03:37:04,VALID,1008.38,VALID,0,VALID,104,VALID,0,VALID,23.5399,VALID,81,VALID,0,
2014-05-23, 03:38:04,VALID,1008.4,VALID,0,VALID,104,VALID,0,VALID,23.5594,VALID,81,VALID,0,
2014-05-23, 03:39:04,VALID,1008.44,VALID,0,VALID,104,VALID,0,VALID,23.5381,VALID,81,VALID,0,
2014-05-23, 03:40:04,VALID,1008.46,VALID,0,VALID,104,VALID,0,VALID,23.5381,VALID,81,VALID,0,
2014-05-23, 03:41:04,VALID,1008.49,VALID,0,VALID,104,VALID,0,VALID,23.5576,VALID,81,VALID,0,
2014-05-23, 03:42:04,VALID,1008.49,VALID,0,VALID,104,VALID,0,VALID,23.5381,VALID,81,VALID,0,
2014-05-23, 03:43:04,VALID,1008.52,VALID,0,VALID,104,VALID,0,VALID,23.5381,VALID,81,VALID,0,
2014-05-23, 03:44:04,VALID,1008.54,VALID,0,VALID,104,VALID,0,VALID,23.5576,VALID,81,VALID,0,
2014-05-23, 03:45:04,VALID,1008.54,VALID,0,VALID,104,VALID,0,VALID,23.5576,VALID,81,VALID,0,
2014-05-23, 03:46:04,VALID,1008.55,VALID,0,VALID,104,VALID,0,VALID,23.5984,VALID,81,VALID,0,
2014-05-23, 03:47:04,VALID,1008.54,VALID,0,VALID,104,VALID,0.112112,VALID,23.5576,VALID,81,VALID,0,
2014-05-23, 03:48:04,VALID,1008.56,VALID,0,VALID,104,VALID,0,VALID,23.5771,VALID,81,VALID,0,
2014-05-23, 03:49:04,VALID,1008.53,VALID,0,VALID,104,VALID,0,VALID,23.5576,VALID,81,VALID,0,
2014-05-23, 03:50:04,VALID,1008.55,VALID,0,VALID,104,VALID,0,VALID,23.5789,VALID,81,VALID,0,
2014-05-23, 03:51:04,VALID,1008.53,VALID,0,VALID,104,VALID,0,VALID,23.5381,VALID,81,VALID,0,
2014-05-23, 03:52:04,VALID,1008.52,VALID,0,VALID,104,VALID,0,VALID,23.5186,VALID,81,VALID,0,
2014-05-23, 03:53:04,VALID,1008.53,VALID,0,VALID,104,VALID,0,VALID,23.5186,VALID,81,VALID,0,
2014-05-23, 03:54:04,VALID,1008.57,VALID,0,VALID,104,VALID,0,VALID,23.5186,VALID,81,VALID,0,
2014-05-23, 03:55:04,VALID,1008.53,VALID,0,VALID,104,VALID,0,VALID,23.4992,VALID,81,VALID,0,
2014-05-23, 03:56:04,VALID,1008.54,VALID,0,VALID,104,VALID,0,VALID,23.4992,VALID,81,VALID,0,
2014-05-23, 03:57:04,VALID,1008.56,VALID,0,VALID,104,VALID,0,VALID,23.4797,VALID,81,VALID,0,
2014-05-23, 03:58:04,VALID,1008.57,VALID,0,VALID,104,VALID,0,VALID,23.4797,VALID,81,VALID,0,
2014-05-23, 03:59:04,VALID,1008.59,VALID,0,VALID,104,VALID,0,VALID,23.4797,VALID,81,VALID,0,
2014-05-23, 04:00:04,VALID,1008.6,VALID,0,VALID,104,VALID,0,VALID,23.4602,VALID,81,VALID,0,
2014-05-23, 04:01:04,VALID,1008.6,VALID,0,VALID,104,VALID,0,VALID,23.4407,VALID,81,VALID,0,
2014-05-23, 04:02:04,VALID,1008.58,VALID,0,VALID,104,VALID,0,VALID,23.4407,VALID,81,VALID,0,
2014-05-23, 04:03:04,VALID,1008.59,VALID,0,VALID,104,VALID,0,VALID,23.4407,VALID,81,VALID,0,
2014-05-23, 04:04:04,VALID,1008.61,VALID,0,VALID,104,VALID,0,VALID,23.4212,VALID,81,VALID,0,
2014-05-23, 04:05:04,VALID,1008.6,VALID,0,VALID,104,VALID,0,VALID,23.4407,VALID,81,VALID,0,
2014-05-23, 04:06:04,VALID,1008.59,VALID,0,VALID,104,VALID,0,VALID,23.4407,VALID,81,VALID,0,
2014-05-23, 04:07:04,VALID,1008.6,VALID,0,VALID,104,VALID,0,VALID,23.4407,VALID,81,VALID,0,
2014-05-23, 04:08:04,VALID,1008.62,VALID,0,VALID,104,VALID,0,VALID,23.4425,VALID,81,VALID,0,
2014-05-23, 04:09:04,VALID,1008.63,VALID,0,VALID,104,VALID,0,VALID,23.4407,VALID,81,VALID,0,
2014-05-23, 04:10:04,VALID,1008.64,VALID,0,VALID,104,VALID,0,VALID,23.4407,VALID,81,VALID,0,
2014-05-23, 04:11:04,VALID,1008.67,VALID,0,VALID,104,VALID,0,VALID,23.4407,VALID,81,VALID,0,